KC1TEM-13 Weather Reports


time (UTC)temp
F
wind
direction
speed
knots
gust
knots
rain 1hr
in
rain 24hr
in
rain mn
in
humidity
%
barometer
mb
20260505031756 60 149 1.7 2.6 0.00 0.00 0.00 48 1010.0
20260505031252 60 187 1.7 4.3 0.00 0.00 0.00 48 1009.9
20260505030749 60 219 2.6 3.5 0.00 0.00 0.00 47 1009.9
20260505030246 60 243 3.5 5.2 0.00 0.00 0.00 47 1009.8
20260505025742 60 208 3.5 5.2 0.00 0.00 0.00 47 1009.8
20260505025240 60 220 1.7 2.6 0.00 0.00 0.00 47 1010.1
20260505024738 61 194 1.7 2.6 0.00 0.00 0.00 46 1010.0
20260505024235 61 196 4.3 5.2 0.00 0.00 0.00 46 1009.9
20260505023732 61 177 1.7 3.5 0.00 0.00 0.00 46 1009.9
20260505023230 61 183 2.6 5.2 0.00 0.00 0.00 45 1010.0
20260505022727 61 116 1.7 1.7 0.00 0.00 0.00 46 1009.9
20260505022224 62 138 0.9 3.5 0.00 0.00 0.00 45 1009.9
20260505021720 62 158 1.7 3.5 0.00 0.00 0.00 45 1010.0
20260505021218 62 214 2.6 5.2 0.00 0.00 0.00 44 1010.0
20260505020713 62 319 0.0 6.1 0.00 0.00 0.00 44 1009.7
20260505020208 62 196 0.9 5.2 0.00 0.00 0.00 44 1009.8
20260505015706 62 206 2.6 5.2 0.00 0.00 0.00 44 1009.8
20260505015203 62 146 0.0 5.2 0.00 0.00 0.00 44 1009.9
20260505014700 63 201 0.9 2.6 0.00 0.00 0.00 43 1009.7
20260505014157 63 189 1.7 3.5 0.00 0.00 0.00 43 1009.6
20260505013654 63 172 1.7 7.0 0.00 0.00 0.00 42 1009.3
20260505013151 63 190 3.5 4.3 0.00 0.00 0.00 42 1009.5
20260505012649 63 169 1.7 3.5 0.00 0.00 0.00 43 1009.3
20260505012146 63 205 4.3 5.2 0.00 0.00 0.00 42 1009.1
20260505011642 64 200 1.7 2.6 0.00 0.00 0.00 42 1009.1
20260505011139 64 182 1.7 3.5 0.00 0.00 0.00 41 1009.1
20260505010639 64 203 3.5 7.8 0.00 0.00 0.00 41 1009.1
20260505010137 65 231 0.0 5.2 0.00 0.00 0.00 41 1008.9
20260505005632 65 251 1.7 7.0 0.00 0.00 0.00 40 1008.7
20260505005130 65 187 2.6 5.2 0.00 0.00 0.00 39 1008.5
20260505004627 65 236 1.7 7.0 0.00 0.00 0.00 39 1008.4
20260505004123 66 180 3.5 7.8 0.00 0.00 0.00 38 1008.5
20260505003621 66 242 3.5 3.5 0.00 0.00 0.00 38 1008.1
20260505003118 66 217 1.7 5.2 0.00 0.00 0.00 37 1008.2
20260505002614 66 200 0.9 8.7 0.00 0.00 0.00 37 1007.9
20260505002112 65 201 1.7 3.5 0.00 0.00 0.00 36 1007.6
20260505001609 65 246 0.0 0.9 0.00 0.00 0.00 35 1007.5
20260505001107 66 267 0.9 0.9 0.00 0.00 0.00 36 1007.5
20260505000603 66 248 0.0 0.9 0.00 0.00 0.00 35 1007.3
20260504235558 67 142 0.0 0.9 0.00 0.00 0.00 34 1007.1
20260504235054 67 192 0.9 0.9 0.00 0.00 0.00 33 1007.2
20260504234551 67 176 0.0 0.9 0.00 0.00 0.00 33 1007.1
20260504234048 68 124 0.0 0.9 0.00 0.00 0.00 33 1007.0
20260504233543 68 170 0.9 1.7 0.00 0.00 0.00 33 1007.1
20260504233041 68 217 0.0 1.7 0.00 0.00 0.00 32 1006.9
20260504232538 68 17 0.0 2.6 0.00 0.00 0.00 32 1006.9
20260504232036 69 249 0.0 1.7 0.00 0.00 0.00 32 1006.9
20260504231532 69 184 0.9 0.9 0.00 0.00 0.00 31 1006.7
20260504231028 69 235 0.0 2.6 0.00 0.00 0.00 30 1006.4
20260504230524 69 195 0.0 0.9 0.00 0.00 0.00 31 1006.4
20260504230023 69 230 1.7 2.6 0.00 0.00 0.00 30 1006.3
20260504225520 70 229 0.9 1.7 0.00 0.00 0.00 30 1006.4
20260504225017 70 343 0.0 1.7 0.00 0.00 0.00 32 1006.6
20260504224514 70 246 0.0 1.7 0.00 0.00 0.00 30 1006.3
20260504224011 70 300 0.9 3.5 0.00 0.00 0.00 29 1006.2
20260504223507 70 233 2.6 3.5 0.00 0.00 0.00 29 1006.3
20260504223003 71 238 0.0 1.7 0.00 0.00 0.00 29 1006.2
20260504222500 71 89 0.0 2.6 0.00 0.00 0.00 29 1006.2
20260504221958 71 264 1.7 1.7 0.00 0.00 0.00 28 1006.1
20260504221455 71 183 1.7 1.7 0.00 0.00 0.00 28 1006.1
20260504220952 71 147 0.9 2.6 0.00 0.00 0.00 29 1006.1
20260504220448 71 265 0.0 5.2 0.00 0.00 0.00 28 1006.1
20260504215945 71 60 0.0 0.9 0.00 0.00 0.00 28 1006.1
20260504215442 72 246 2.6 3.5 0.00 0.00 0.00 27 1006.3
20260504214938 72 243 1.7 2.6 0.00 0.00 0.00 27 1006.0
20260504214435 72 309 0.0 3.5 0.00 0.00 0.00 27 1006.2
20260504213932 73 236 0.9 5.2 0.00 0.00 0.00 26 1006.2
20260504213427 74 278 0.9 4.3 0.00 0.00 0.00 26 1006.3
20260504212925 74 280 0.9 1.7 0.00 0.00 0.00 26 1006.3
20260504212421 74 113 0.0 1.7 0.00 0.00 0.00 27 1005.9
20260504211919 74 189 2.6 3.5 0.00 0.00 0.00 25 1006.1
20260504211415 74 279 2.6 4.3 0.00 0.00 0.00 25 1005.9
20260504210912 74 109 0.0 2.6 0.00 0.00 0.00 27 1006.0
20260504210409 73 233 1.7 10.4 0.00 0.00 0.00 26 1006.1
20260504205906 72 262 2.6 4.3 0.00 0.00 0.00 26 1005.9
20260504205404 73 323 1.7 3.5 0.00 0.00 0.00 27 1006.1
20260504204902 74 35 2.6 3.5 0.00 0.00 0.00 26 1006.2
20260504204400 73 56 0.0 1.7 0.00 0.00 0.00 27 1006.1
20260504203900 72 35 0.0 2.6 0.00 0.00 0.00 26 1006.0
20260504203356 73 242 3.5 5.2 0.00 0.00 0.00 26 1006.2
20260504202852 72 82 1.7 4.3 0.00 0.00 0.00 27 1006.4
20260504202349 73 334 1.7 4.3 0.00 0.00 0.00 26 1006.2
20260504201845 73 231 3.5 7.0 0.00 0.00 0.00 25 1005.9
20260504201343 73 345 1.7 3.5 0.00 0.00 0.00 25 1005.9
20260504200840 75 263 2.6 3.5 0.00 0.00 0.00 24 1006.0
20260504200337 74 49 0.9 7.8 0.00 0.00 0.00 26 1006.2
20260504195833 74 229 1.7 13.9 0.00 0.00 0.00 24 1006.2
20260504195329 74 17 0.9 1.7 0.00 0.00 0.00 26 1006.2
20260504194826 74 250 5.2 5.2 0.00 0.00 0.00 24 1006.2
20260504194322 74 99 0.0 7.8 0.00 0.00 0.00 25 1006.2
20260504193818 74 137 0.0 2.6 0.00 0.00 0.00 25 1006.1
20260504193315 73 259 2.6 7.0 0.00 0.00 0.00 24 1006.1
20260504192814 72 252 1.7 3.5 0.00 0.00 0.00 25 1006.3
20260504192312 73 217 0.0 3.5 0.00 0.00 0.00 24 1006.2
20260504191810 72 258 1.7 3.5 0.00 0.00 0.00 26 1006.4
20260504191307 73 354 2.6 7.0 0.00 0.00 0.00 25 1006.4
20260504190802 74 185 0.9 5.2 0.00 0.00 0.00 25 1006.3
20260504190259 74 248 4.3 5.2 0.00 0.00 0.00 24 1006.6
20260504185755 72 54 1.7 7.8 0.00 0.00 0.00 26 1006.3
20260504185252 73 235 6.1 6.1 0.00 0.00 0.00 25 1006.4
20260504184748 73 223 0.0 3.5 0.00 0.00 0.00 25 1006.6
20260504184244 73 210 1.7 6.1 0.00 0.00 0.00 24 1006.7
20260504183740 72 317 3.5 3.5 0.00 0.00 0.00 25 1006.7
20260504183237 72 247 1.7 4.3 0.00 0.00 0.00 24 1006.8
20260504182735 72 208 3.5 7.8 0.00 0.00 0.00 25 1007.0
20260504182232 72 233 2.6 5.2 0.00 0.00 0.00 25 1006.8
20260504181730 73 305 6.1 7.0 0.00 0.00 0.00 25 1007.0
20260504181227 72 95 0.0 3.5 0.00 0.00 0.00 26 1007.1
20260504180726 72 320 2.6 7.8 0.00 0.00 0.00 25 1007.0
20260504180224 71 184 2.6 7.8 0.00 0.00 0.00 26 1006.8
20260504175722 71 146 1.7 5.2 0.00 0.00 0.00 25 1006.9
20260504175218 72 225 0.9 5.2 0.00 0.00 0.00 25 1006.9
20260504174716 72 343 1.7 7.0 0.00 0.00 0.00 26 1006.9
20260504174214 72 318 1.7 5.2 0.00 0.00 0.00 27 1007.1
20260504173710 71 211 0.9 5.2 0.00 0.00 0.00 26 1007.1
20260504173207 72 180 3.5 6.1 0.00 0.00 0.00 25 1007.0
20260504172704 71 190 3.5 3.5 0.00 0.00 0.00 26 1007.1
20260504172200 71 319 4.3 5.2 0.00 0.00 0.00 27 1007.2
20260504171657 71 185 0.9 9.6 0.00 0.00 0.00 25 1007.0
20260504171154 70 257 3.5 6.1 0.00 0.00 0.00 26 1007.1
20260504170650 71 139 2.6 2.6 0.00 0.00 0.00 27 1007.3
20260504170148 70 222 1.7 7.0 0.00 0.00 0.00 27 1007.4
20260504160107 68 238 9.6 10.4 0.00 0.00 0.00 27 1007.7
20260504151039 67 227 7.8 8.7 0.00 0.00 0.00 31 1008.1
20260504150536 67 202 2.6 6.1 0.00 0.00 0.00 31 1008.3
20260504141002 64 240 1.7 5.2 0.00 0.00 0.00 34 1009.0
20260504140459 64 18 2.6 4.3 0.00 0.00 0.00 35 1009.1
20260504130423 60 41 1.7 7.8 0.00 0.00 0.00 40 1009.8
20260504110310 47 86 0.9 0.9 0.00 0.00 0.00 57 1010.7
20260504100228 43 195 1.7 2.6 0.00 0.00 0.00 64 1010.7
20260504081622 42 72 0.0 0.0 0.00 0.00 0.00 74 1010.3
20260504081117 42 87 0.9 0.9 0.00 0.00 0.00 74 1010.3
20260504080614 43 89 0.9 0.9 0.00 0.00 0.00 73 1010.4
20260504080111 43 96 0.9 0.9 0.00 0.00 0.00 73 1010.5
20260504050427 37 107 0.0 0.0 0.00 0.00 0.00 73 1010.3
20260504045924 37 69 0.0 0.0 0.00 0.00 0.00 74 1010.3
20260504045420 37 76 0.0 0.0 0.00 0.00 0.00 74 1010.2
20260504044916 37 124 0.0 0.0 0.00 0.00 0.00 75 1010.2
20260504044414 37 124 0.0 0.0 0.00 0.00 0.00 75 1010.2
20260504043911 37 76 0.0 0.0 0.00 0.00 0.00 73 1010.0
20260504043408 37 89 0.0 0.0 0.00 0.00 0.00 73 1010.4
20260504042905 37 103 0.0 0.0 0.00 0.00 0.00 74 1010.3
20260504042401 37 89 0.0 0.0 0.00 0.00 0.00 73 1010.1
20260504041858 37 103 0.0 0.9 0.00 0.00 0.00 74 1010.2
20260504041354 37 63 0.0 0.9 0.00 0.00 0.00 73 1010.2
20260504040850 37 249 0.0 0.9 0.00 0.00 0.00 73 1010.3
20260504040348 37 150 0.0 0.0 0.00 0.00 0.00 74 1010.1
20260504035843 37 150 0.0 0.0 0.00 0.02 0.02 73 1010.1
20260504035342 37 22 0.0 0.0 0.00 0.02 0.02 73 1009.9
20260504034838 37 106 0.9 0.9 0.00 0.02 0.02 73 1010.1
20260504034336 37 141 0.0 0.0 0.00 0.02 0.02 75 1010.0
20260504033832 38 61 0.9 0.9 0.00 0.02 0.02 75 1009.7
20260504033331 38 13 0.0 0.0 0.00 0.02 0.02 73 1009.9
20260504032826 38 116 0.0 0.0 0.00 0.02 0.02 71 1010.1
20260504032324 38 125 0.0 0.9 0.00 0.02 0.02 73 1009.9